Location: Newark
(37.9000°S, 166.5167°W)
Time: 22:48:40
(UTC+00:00)

LightSail 2 - Visible Passes

Search period start: 19 January 2020 00:00
Search period end: 29 January 2020 00:00
Orbit: 703 x 720 km, 24.0° (Epoch: 19 January)

Date Brightness Start Highest point End Pass type
(mag) Time Alt. Az. Time Alt. Az. Time Alt. Az.
24 Jan 7.1 15:39:41 10° NNW 15:42:30 15° N 15:45:20 10° NE visible
25 Jan 7.1 14:43:11 12° N 14:44:15 13° NNE 14:46:34 10° NE visible
26 Jan 6.9 15:27:28 10° NW 15:30:40 17° N 15:33:52 10° NE visible
27 Jan 6.9 14:32:15 16° N 14:32:23 16° N 14:35:23 10° NE visible
28 Jan 6.9 15:16:17 12° NW 15:18:48 17° N 15:22:04 10° NE visible
